Location: Haliburton Scout Reserve
(45.0900°N, 78.3200°W)
Time: 09:13:16
(UTC-04:00)

Explorer 11/Cluster Stage 4 - Pass Details

Date: 07 February 2023
Orbit: 466 x 1241 km, 28.8° (Epoch: 31 March)

Event Time Altitude Azimuth Distance (km) Brightness Sun altitude
Rises 05:42:06 0° 243° (WSW) 3,892 - -18.7°
Reaches altitude 10° 05:45:23 10° 230° (SW) 3,035 - -18.1°
Exits shadow 05:45:57 12° 227° (SW) 2,909 9.1 -18.0°
Maximum altitude 05:51:08 23° 182° (S) 2,313 9.0 -17.1°
Drops below altitude 10° 05:57:10 10° 134° (SE) 3,202 10.5 -16.1°
Sets 06:00:45 0° 121° (ESE) 4,156 11.5 -15.4°
